CAPE
0 0 0 0 0 0 3 0 0 0 19 16 0 0 0 0 0 1 96 61 222 91 1 366 807 1038 1349 1537 1592 1666 1819 1989 2084 2122 2157 2164 2118 2180 2254 2326 2386 2453 2539 2116 1890 1901 1940 1962 1850
0 0 0 0 0 2 10 0 0 0 12 40 0 0 0 0 7 223 164 134 282 101 34 16 661 884 1186 1314 1436 1531 1775 1863 1892 1950 1967 1910 1936 1984 2037 2029 2084 2250 2368 2182 1766 1694 1645 1553 1625
0 0 0 0 0 3 14 0 0 0 2 49 0 0 0 0 78 70 81 345 218 117 66 58 571 684 976 1120 1264 1384 1523 1575 1669 1741 1833 1789 1824 1801 1824 1784 1933 2143 2245 2070 1640 1495 1289 1211 1026
0 0 0 0 0 0 0 0 0 0 0 4 0 0 0 242 47 44 201 289 238 126 81 178 388 540 781 970 1110 1232 1267 1262 1349 1498 1644 1731 1715 1635 1614 1590 1845 2035 2085 1976 1499 1137 1256 962 805
0 0 0 0 0 0 0 0 0 0 0 0 0 0 13 472 504 282 267 317 304 204 120 236 304 427 676 870 1005 1024 1011 1041 1179 1413 1492 1557 1590 1504 1398 1417 1664 1744 1788 1755 1577 1209 1085 757 532
0 0 0 0 0 0 0 0 0 0 0 0 0 0 110 683 677 172 313 381 399 298 249 86 348 393 512 682 733 703 768 900 1045 1229 1357 1446 1319 1202 1314 1317 1321 1443 1442 1320 1098 859 785 567 281
0 0 0 0 0 0 0 0 0 0 0 10 31 0 286 591 827 316 431 545 593 481 347 175 279 425 296 417 396 434 588 770 894 1006 1149 1125 864 883 1210 1245 1079 1111 1045 866 713 616 550 446 160
0 0 0 0 0 0 0 0 0 0 0 66 147 0 28 549 927 681 681 751 875 807 575 344 258 315 371 496 101 186 372 562 716 799 912 718 499 713 946 985 943 838 749 569 522 433 370 280 56
0 0 0 0 0 0 0 0 0 0 5 33 218 339 97 967 934 959 986 863 936 963 842 653 461 361 449 302 224 65 174 328 471 605 611 456 123 295 694 477 630 521 292 294 307 228 174 113 2
0 0 0 0 0 0 0 0 0 0 0 105 415 554 728 885 945 985 985 930 839 827 981 826 750 536 565 213 285 143 106 228 341 444 704 362 179 111 27 171 434 240 97 130 144 91 19 33 414
0 0 0 0 0 0 0 0 0 0 1 61 192 726 682 814 727 745 592 518 448 484 766 800 867 749 628 270 371 144 79 53 90 167 486 231 355 322 122 179 385 298 106 137 117 164 212 277 385
0 0 0 0 0 0 0 0 0 0 0 0 144 692 747 679 464 381 244 168 186 252 432 668 725 871 742 348 343 258 154 78 75 102 335 144 305 348 145 74 65 159 77 70 113 145 191 290 354
0 0 0 0 0 0 0 0 0 0 0 0 0 700 794 519 261 173 60 34 126 158 209 398 549 865 882 614 419 399 301 189 66 98 231 42 10 17 38 65 57 89 93 87 121 113 171 224 209
0 0 0 0 0 0 0 0 0 0 0 0 0 505 790 516 183 86 7 15 91 87 89 249 364 773 864 894 714 575 479 328 196 56 63 154 0 0 0 2 58 76 46 68 95 90 132 176 125
0 0 0 0 0 0 0 0 0 0 0 0 0 140 764 682 245 93 55 15 25 28 38 221 343 583 842 918 955 795 556 431 283 111 103 161 21 0 0 0 0 0 0 45 25 52 70 69 72
0 0 0 0 0 0 0 0 0 0 0 0 0 0 419 687 481 218 187 128 36 0 0 178 151 418 842 830 906 847 665 601 407 196 150 197 70 0 0 0 0 0 0 32 0 0 0 6 0
0 0 0 0 0 0 0 0 0 0 0 0 0 0 2 210 580 570 378 307 189 64 30 82 317 288 670 779 792 866 771 688 479 274 172 282 186 16 0 0 0 0 0 0 8 0 0 0 0
0 0 0 0 0 0 0 0 0 0 0 0 0 0 0 0 44 441 594 419 401 378 368 293 348 390 513 484 642 614 606 629 491 355 236 243 312 148 46 0 0 0 0 0 0 0 5 5 0
0 0 0 0 0 0 0 0 0 0 0 0 0 0 0 0 0 0 137 599 670 660 775 881 853 774 582 520 481 453 579 499 416 310 294 277 343 323 181 41 16 15 0 0 2 5 2 0 0
0 0 0 0 0 0 0 0 0 0 0 0 0 0 0 0 0 0 0 0 136 605 929 1160 1266 1266 1188 894 900 617 523 465 445 401 362 463 374 568 416 306 104 33 1 4 36 28 6 0 0
0 0 0 0 0 0 0 0 0 0 0 0 0 0 0 0 0 0 0 0 0 0 230 850 1171 1529 1512 1157 1110 830 779 737 661 571 601 754 425 644 736 353 388 429 138 47 155 120 71 0 2
0 0 0 0 0 0 0 0 0 0 0 0 0 0 0 0 0 0 0 0 0 0 0 0 542 1081 1637 1433 1171 1221 1232 983 1108 940 788 734 570 470 516 754 498 762 307 322 238 128 284 133 12
0 0 0 0 0 0 0 0 0 0 0 0 0 0 0 0 0 0 0 0 0 0 0 0 26 317 1326 1582 1455 1543 1298 1545 1239 1067 1019 981 833 622 439 588 560 873 750 642 745 576 507 128 168
0 0 0 0 4 12 0 0 0 0 0 0 0 0 0 0 0 0 0 0 0 0 0 0 0 0 566 1425 1486 1938 1955 1732 1322 1582 1393 1042 796 674 679 533 680 917 662 583 495 739 477 330 317
0 12 16 8 12 0 0 0 0 0 0 0 0 0 0 0 0 0 0 0 0 0 0 0 0 0 23 1310 1500 1776 2133 1874 1694 1757 1504 1130 911 803 679 735 801 796 721 600 479 495 530 766 844
0 0 7 0 0 0 0 0 0 0 0 0 0 0 0 0 0 0 0 0 0 0 0 0 0 0 0 161 1305 1505 1302 1208 1280 1480 1293 1259 1138 1143 1111 910 719 652 653 598 614 968 979 1232 1427
0 22 0 1 0 4 2 0 0 0 0 0 0 0 0 0 0 0 0 0 0 0 0 0 0 0 0 191 999 1167 1402 1381 1285 1438 1664 1343 1485 1374 1384 1432 1274 1227 1191 1148 898 1026 1260 1283 1148
10 1 15 61 42 9 0 0 0 0 0 0 0 0 0 0 0 0 0 0 0 0 0 0 0 0 0 2 628 928 1128 1137 1219 1338 1387 1423 1654 1663 1662 1808 1815 1753 1696 1550 1124 1050 1029 966 817
35 31 44 86 85 34 11 6 0 0 0 0 0 0 0 0 0 0 0 0 0 0 0 0 44 0 0 0 13 926 1082 1007 1161 1431 1522 1576 1685 1833 1838 2009 2020 1794 1430 1340 1207 1032 875 739 604
44 55 81 182 39 73 72 20 0 0 0 0 0 0 0 0 0 0 0 0 0 0 0 0 130 97 0 0 0 571 917 1080 1324 1581 1595 1716 1841 1995 2041 2040 2004 1783 999 1035 935 1032 379 374 354
CIN
-0 -0 -0 -0 -0 -0 -0 -0 -0 -0 -38 -106 -0 -0 -0 -0 -0 -8 -234 -227 -230 -273 -16 -269 -172 -125 -60 -63 -49 -30 -21 -17 -10 -6 -0 -0 -0 -1 -6 -4 -2 -1 -0 -4 -9 -7 -3 -0 -0
-0 -0 -0 -0 -0 -0 -0 -0 -0 -0 -67 -128 -0 -0 -0 -0 -82 -226 -217 -280 -243 -282 -335 -356 -209 -154 -89 -88 -60 -32 -19 -16 -13 -8 -4 -2 -4 -6 -15 -18 -16 -5 -1 -3 -14 -15 -15 -15 -7
-0 -0 -0 -0 -0 -0 -0 -0 -0 -0 -41 -73 -0 -0 -0 -0 -218 -230 -235 -267 -269 -286 -306 -308 -228 -194 -120 -109 -73 -43 -29 -27 -21 -15 -7 -5 -7 -11 -19 -33 -15 -4 -2 -8 -24 -29 -43 -53 -78
-0 -0 -0 -0 -0 -0 -0 -0 -0 -0 -0 -74 -0 -0 -0 -217 -198 -227 -279 -249 -263 -277 -281 -371 -265 -230 -168 -127 -93 -57 -52 -56 -45 -32 -9 -3 -13 -21 -30 -45 -22 -8 -3 -7 -33 -73 -57 -94 -117
-0 -0 -0 -0 -0 -0 -0 -0 -0 -0 -0 -0 -0 -0 -74 -221 -241 -253 -284 -243 -252 -261 -269 -298 -292 -231 -184 -146 -110 -95 -94 -79 -54 -37 -25 -17 -19 -39 -45 -46 -25 -25 -25 -27 -30 -59 -71 -120 -163
-0 -0 -0 -0 -0 -0 -0 -0 -0 -0 -0 -0 -0 -0 -72 -244 -214 -291 -261 -242 -236 -242 -263 -325 -274 -236 -202 -171 -158 -156 -141 -106 -67 -43 -33 -28 -37 -64 -56 -53 -48 -44 -50 -61 -90 -122 -114 -149 -220
-0 -0 -0 -0 -0 -0 -0 -0 -0 -0 -0 -55 -52 -0 -116 -185 -233 -277 -251 -238 -223 -236 -249 -301 -261 -199 -244 -210 -209 -199 -169 -133 -89 -59 -42 -53 -92 -90 -58 -60 -81 -77 -92 -103 -137 -157 -173 -188 -273
-0 -0 -0 -0 -0 -0 -0 -0 -0 -0 -0 -149 -93 -1 -101 -158 -272 -241 -229 -230 -212 -210 -230 -273 -266 -219 -174 -145 -301 -250 -200 -159 -124 -88 -60 -95 -136 -95 -66 -70 -85 -115 -129 -130 -147 -177 -200 -218 -321
-0 -0 -0 -0 -0 -0 -0 -0 -0 -0 -57 -158 -110 -75 -67 -260 -292 -247 -222 -227 -214 -196 -199 -216 -230 -222 -163 -173 -222 -306 -242 -185 -145 -111 -95 -134 -168 -148 -75 -98 -115 -138 -198 -201 -182 -199 -235 -260 -81
-0 -0 -0 -0 -0 -0 -0 -0 -0 -0 -0 -152 -136 -285 -237 -299 -261 -215 -179 -193 -227 -227 -191 -194 -189 -206 -168 -185 -183 -220 -202 -158 -123 -105 -65 -90 -127 -154 -197 -174 -139 -194 -258 -248 -233 -249 -292 -111 -44
-0 -0 -0 -0 -0 -0 -0 -0 -0 -0 -14 -106 -85 -173 -271 -219 -216 -186 -152 -148 -186 -250 -218 -212 -183 -178 -177 -193 -165 -194 -220 -211 -184 -151 -96 -102 -80 -93 -146 -143 -120 -138 -259 -174 -215 -154 -130 -85 -44
-0 -0 -0 -0 -0 -0 -0 -0 -0 -0 -0 -0 -131 -122 -219 -236 -199 -169 -156 -165 -211 -259 -267 -236 -212 -176 -177 -182 -192 -182 -184 -211 -192 -189 -133 -136 -99 -92 -145 -165 -186 -155 -193 -197 -188 -150 -133 -94 -87
-0 -0 -0 -0 -0 -0 -0 -0 -0 -0 -0 -0 -0 -145 -193 -181 -163 -185 -213 -214 -215 -267 -305 -296 -262 -203 -177 -182 -185 -178 -189 -198 -204 -197 -167 -201 -58 -74 -160 -157 -165 -163 -156 -170 -159 -161 -167 -134 -133
-0 -0 -0 -0 -0 -0 -0 -0 -0 -0 -0 -0 -0 -155 -130 -148 -158 -198 -80 -218 -240 -281 -347 -336 -306 -255 -216 -181 -176 -180 -185 -180 -195 -225 -230 -216 -0 -0 -0 -16 -152 -144 -150 -139 -136 -128 -120 -127 -142
-0 -0 -0 -0 -0 -0 -0 -0 -0 -0 -0 -0 -0 -212 -111 -131 -186 -228 -254 -248 -283 -294 -326 -359 -346 -306 -265 -231 -181 -172 -188 -191 -206 -218 -242 -234 -126 -0 -0 -0 -0 -0 -1 -145 -147 -145 -137 -139 -150
-0 -0 -0 -0 -0 -0 -0 -0 -0 -0 -0 -0 -0 -0 -143 -118 -146 -179 -243 -254 -281 -0 -0 -358 -397 -354 -290 -271 -227 -202 -198 -201 -202 -221 -232 -251 -264 -0 -0 -0 -0 -0 -0 -151 -0 -0 -0 -115 -0
-0 -0 -0 -0 -0 -0 -0 -0 -0 -0 -0 -0 -0 -0 -98 -172 -120 -134 -197 -201 -208 -254 -303 -345 -378 -389 -344 -304 -251 -221 -208 -211 -212 -230 -247 -252 -279 -185 -0 -0 -0 -0 -0 -0 -112 -0 -0 -0 -0
-0 -0 -0 -0 -0 -0 -0 -0 -0 -0 -0 -0 -0 -0 -0 -0 -68 -119 -139 -155 -173 -164 -209 -268 -352 -383 -364 -318 -277 -239 -219 -233 -230 -239 -258 -269 -266 -298 -317 -0 -0 -0 -0 -0 -0 -0 -61 -94 -0
-0 -0 -0 -0 -0 -0 -0 -0 -0 -0 -0 -0 -0 -0 -0 -0 -0 -0 -143 -133 -141 -157 -162 -185 -247 -345 -355 -333 -311 -300 -258 -252 -265 -260 -281 -285 -277 -285 -311 -356 -154 -385 -0 -0 -128 -284 -20 -0 -0
-0 -0 -0 -0 -0 -0 -0 -0 -0 -0 -0 -0 -0 -0 -0 -0 -0 -0 -0 -0 -155 -135 -140 -153 -174 -233 -302 -275 -232 -240 -232 -251 -267 -286 -303 -291 -309 -257 -276 -273 -306 -402 -133 -199 -311 -298 -318 -0 -0
-0 -0 -0 -0 -0 -0 -0 -0 -0 -0 -0 -0 -0 -0 -0 -0 -0 -0 -0 -0 -0 -0 -218 -179 -179 -175 -242 -279 -230 -240 -237 -249 -277 -300 -300 -276 -347 -281 -259 -313 -249 -217 -278 -325 -218 -207 -233 -0 -132
-0 -0 -0 -0 -0 -0 -0 -0 -0 -0 -0 -0 -0 -0 -0 -0 -0 -0 -0 -0 -0 -0 -0 -0 -196 -149 -180 -271 -221 -233 -200 -211 -208 -247 -268 -274 -338 -352 -326 -254 -274 -187 -259 -215 -199 -246 -136 -163 -250
-0 -0 -0 -0 -0 -0 -0 -0 -0 -0 -0 -0 -0 -0 -0 -0 -0 -0 -0 -0 -0 -0 -0 -0 -408 -249 -161 -239 -260 -225 -245 -167 -157 -218 -236 -270 -286 -348 -385 -318 -292 -203 -198 -179 -128 -95 -103 -176 -112
-0 -0 -0 -0 -0 -0 -0 -0 -0 -0 -0 -0 -0 -0 -0 -0 -0 -0 -0 -0 -0 -0 -0 -0 -0 -0 -251 -240 -309 -234 -227 -212 -152 -142 -201 -258 -308 -343 -347 -364 -320 -230 -256 -239 -217 -104 -119 -123 -85
-0 -0 -0 -0 -0 -0 -0 -0 -0 -0 -0 -0 -0 -0 -0 -0 -0 -0 -0 -0 -0 -0 -0 -0 -0 -0 -447 -225 -273 -299 -269 -274 -224 -173 -222 -261 -300 -336 -369 -332 -294 -279 -268 -257 -246 -198 -146 -55 -27
-0 -0 -0 -0 -0 -0 -0 -0 -0 -0 -0 -0 -0 -0 -0 -0 -0 -0 -0 -0 -0 -0 -0 -0 -0 -0 -0 -533 -285 -298 -337 -297 -280 -232 -228 -262 -280 -282 -277 -297 -300 -306 -275 -265 -228 -117 -84 -21 -3
-0 -0 -0 -0 -0 -0 -0 -0 -0 -0 -0 -0 -0 -0 -0 -0 -0 -0 -0 -0 -0 -0 -0 -0 -0 -0 -0 -481 -294 -308 -316 -326 -304 -274 -240 -253 -239 -231 -231 -214 -212 -185 -156 -134 -163 -117 -49 -19 -14
-0 -0 -0 -0 -0 -0 -0 -0 -0 -0 -0 -0 -0 -0 -0 -0 -0 -0 -0 -0 -0 -0 -0 -0 -0 -0 -0 -20 -329 -305 -342 -359 -369 -312 -277 -258 -222 -199 -185 -158 -132 -98 -68 -60 -107 -104 -73 -58 -68
-0 -0 -0 -0 -0 -0 -0 -0 -0 -0 -0 -0 -0 -0 -0 -0 -0 -0 -0 -0 -0 -0 -0 -0 -407 -0 -0 -0 -314 -315 -325 -379 -382 -315 -277 -250 -208 -172 -160 -135 -108 -98 -111 -91 -87 -94 -89 -85 -103
-0 -1 -0 -0 -0 -0 -0 -0 -0 -0 -0 -0 -0 -0 -0 -0 -0 -0 -0 -0 -0 -0 -0 -0 -306 -385 -0 -0 -0 -423 -381 -368 -332 -290 -268 -225 -182 -146 -135 -120 -106 -100 -184 -147 -139 -90 -209 -172 -152
Wind_Speed
7 7 5 6 7 7 4 7 2 8 7 4 9 1 2 6 6 6 9 13 20 20 20 18 13 15 15 18 17 16 16 16 16 15 15 15 14 14 14 14 15 16 17 19 19 19 19 18 16
5 4 6 4 9 9 8 5 8 7 9 8 8 3 2 7 4 10 15 14 21 20 18 19 14 15 15 18 17 16 16 16 15 14 14 14 13 13 13 13 14 15 17 18 19 18 18 16 14
8 6 6 5 6 10 3 7 9 8 12 9 8 1 2 5 6 15 12 22 21 19 19 17 14 14 15 17 16 14 14 14 14 14 14 13 13 13 13 13 13 15 16 18 19 18 17 14 13
5 6 6 8 11 3 3 7 6 10 8 7 4 7 6 5 11 7 20 23 21 19 18 18 13 14 16 17 16 14 12 12 12 13 13 13 13 12 12 11 14 15 15 16 18 17 14 11 11
6 5 8 10 6 2 2 1 4 12 11 12 9 8 6 7 6 14 20 20 20 18 16 19 12 12 15 17 16 14 12 12 11 12 12 12 12 12 10 10 12 13 15 16 15 14 11 10 9
6 5 9 12 10 4 2 2 5 12 11 13 8 12 7 10 12 17 18 19 19 18 17 19 14 13 13 15 15 13 13 12 11 10 11 11 11 11 10 10 10 10 12 13 14 13 10 9 8
11 8 12 8 5 8 2 6 8 13 13 12 2 12 8 13 14 17 17 17 17 17 17 17 17 15 11 11 12 12 12 12 10 10 9 10 10 9 10 10 10 10 10 11 12 11 10 9 7
7 8 9 11 10 9 3 2 3 13 11 2 6 8 10 16 17 17 16 16 16 15 16 17 16 16 15 14 10 12 12 11 11 10 8 9 9 9 8 8 9 11 10 9 10 9 9 8 6
4 8 12 15 12 8 1 2 3 3 5 9 9 5 5 22 21 18 17 17 16 15 16 16 16 16 15 14 13 11 12 11 10 10 7 9 11 13 13 9 11 9 8 9 8 7 6 6 5
10 11 14 5 6 8 3 1 2 7 14 12 11 7 15 22 22 22 21 20 21 20 19 16 16 17 16 12 14 14 13 12 12 13 13 11 10 11 12 11 10 7 6 6 8 7 3 7 8
10 14 8 8 6 5 5 6 1 3 12 14 16 14 19 21 21 20 20 20 23 21 17 19 17 16 17 13 11 9 8 9 10 14 13 12 9 9 9 8 8 10 9 9 9 9 9 10 6
12 14 11 11 6 7 10 3 6 7 3 4 5 18 21 22 22 22 21 20 21 22 20 20 19 17 17 12 11 12 10 10 10 12 14 10 8 10 10 8 11 10 10 11 11 8 10 10 10
17 15 12 14 10 11 11 14 11 11 10 5 6 16 21 21 22 20 18 18 18 20 20 20 20 18 16 15 12 12 12 11 12 12 14 11 11 10 10 9 10 10 10 11 10 10 10 10 10
2 14 17 14 13 13 14 18 9 13 5 8 8 15 18 21 22 19 19 19 19 19 21 20 20 19 18 16 15 12 11 12 11 12 13 16 11 10 11 10 10 10 10 10 10 10 9 10 10
12 14 15 17 16 14 11 22 22 19 12 9 10 12 16 18 20 22 21 20 21 18 19 21 20 19 19 19 16 13 11 12 12 12 15 16 15 13 12 10 10 11 10 12 10 10 10 9 9
13 15 19 19 20 12 13 21 22 22 18 17 14 13 14 17 21 21 19 19 19 18 20 20 18 20 20 17 15 13 12 12 12 12 12 16 17 15 13 11 10 11 10 10 10 10 10 10 10
15 18 23 20 11 17 19 17 23 12 14 20 18 15 15 16 19 19 19 19 19 19 19 19 20 21 21 18 15 15 15 13 12 12 13 17 17 17 14 12 11 12 10 10 10 10 11 10 10
19 22 21 17 14 16 17 22 20 13 18 17 21 19 18 17 19 18 19 19 19 19 19 19 17 20 19 14 14 12 13 13 13 13 14 17 15 18 16 13 13 12 11 11 11 12 11 10 10
24 16 20 18 18 9 17 22 21 21 15 17 19 18 18 19 18 17 17 18 18 19 20 21 21 21 16 15 15 14 15 14 14 14 18 18 16 19 18 14 14 13 13 14 13 12 14 11 10
23 21 19 9 7 9 17 22 18 19 20 17 18 19 20 18 17 15 14 16 18 21 21 22 22 21 19 15 15 14 13 13 13 13 16 18 19 18 18 17 15 17 13 15 14 14 12 11 11
22 25 21 17 11 12 11 21 21 21 22 22 21 19 19 19 20 19 17 16 17 18 20 22 23 23 22 22 14 12 11 11 12 14 15 17 21 20 19 20 16 15 14 12 14 15 16 12 11
24 21 19 19 17 17 17 21 24 21 25 24 25 23 21 23 23 21 20 20 19 19 18 21 23 23 21 22 17 20 16 15 15 14 14 14 20 21 20 18 18 16 13 15 14 13 14 14 13
23 18 17 16 16 17 20 13 22 19 22 22 20 21 21 19 22 24 25 23 22 19 17 17 20 21 22 21 21 17 19 15 12 13 15 17 16 20 20 19 19 17 14 15 15 14 15 13 13
14 17 17 14 13 18 23 19 25 21 23 17 15 15 17 18 21 21 20 20 19 13 12 14 19 21 21 21 23 22 21 20 15 15 13 12 13 13 18 19 17 16 16 16 15 15 16 15 14
20 17 14 15 14 21 19 20 27 5 7 8 10 13 15 16 16 16 17 17 17 16 14 13 16 19 20 22 22 23 23 21 20 17 13 14 12 13 16 18 17 15 16 16 15 15 16 16 14
26 25 14 21 18 21 22 15 22 17 27 28 23 18 21 17 12 12 16 15 13 12 12 14 15 17 18 20 21 20 23 15 15 17 14 12 12 13 15 17 17 18 17 16 15 12 12 13 12
18 23 28 27 23 15 10 17 27 23 22 21 20 17 15 13 17 17 11 9 11 11 11 13 14 16 17 20 18 19 19 20 18 19 16 13 14 12 15 17 17 17 17 16 15 11 12 12 11
23 15 19 16 26 29 21 22 14 13 12 18 17 16 19 20 16 12 10 8 9 7 8 8 12 16 17 19 17 17 19 20 19 16 18 18 15 16 16 16 16 16 16 15 13 11 11 11 9
15 18 19 16 19 19 21 21 23 26 19 9 7 3 10 9 8 7 7 7 6 8 10 10 9 12 14 15 17 17 17 19 18 17 18 17 16 17 17 16 16 15 14 13 11 11 11 12 11
15 8 19 17 22 17 22 19 15 11 15 21 23 25 19 8 10 9 10 9 11 8 8 8 9 10 13 15 16 17 17 18 19 20 19 18 18 17 17 16 15 14 13 13 13 13 10 11 11
Wind_Direction
234 232 240 236 244 236 193 131 67 135 144 72 127 186 326 2 338 21 137 152 142 149 154 164 153 145 148 133 133 137 141 141 137 137 135 134 131 128 126 124 124 126 125 123 121 119 117 114 109
294 238 226 276 255 220 147 124 170 116 103 124 145 153 196 73 66 119 138 154 154 148 153 161 152 148 148 135 135 142 144 141 137 138 138 136 133 134 131 129 129 130 127 125 123 120 119 115 109
270 263 268 263 257 255 122 157 116 116 150 157 158 261 37 76 83 144 124 152 151 152 156 148 153 148 146 136 138 143 143 140 141 143 142 137 137 138 136 131 130 131 131 129 126 123 120 116 117
274 204 216 252 224 93 16 118 135 143 157 191 138 135 109 32 136 147 144 152 153 156 160 137 153 150 147 141 141 143 144 144 146 145 143 142 142 142 139 135 135 137 133 130 131 131 130 126 123
238 246 246 239 209 156 178 333 224 179 160 176 194 125 104 106 101 135 151 156 157 157 158 159 153 153 151 146 146 147 147 146 148 148 145 148 147 144 141 137 139 141 139 138 138 139 132 121 117
229 274 235 227 181 180 199 309 251 208 173 176 193 147 113 122 138 145 154 160 157 158 155 159 158 155 157 151 150 151 150 150 151 153 149 150 148 146 144 142 141 143 141 142 143 147 139 130 129
266 239 247 269 214 195 147 321 220 204 187 176 158 171 113 152 138 149 156 157 160 159 161 161 171 165 156 155 152 154 155 156 156 156 155 147 145 148 150 147 146 145 149 145 152 152 150 145 135
274 264 229 223 208 192 65 305 276 212 174 79 204 175 165 146 150 150 154 159 162 164 165 168 173 174 173 172 159 157 158 160 157 159 155 148 146 149 154 148 154 156 157 153 161 159 156 148 142
265 245 233 221 210 173 137 231 85 307 189 202 185 347 91 140 149 155 158 163 166 173 172 174 175 176 177 177 171 164 162 160 157 162 152 157 180 175 165 184 148 168 166 163 165 169 171 159 170
230 242 241 246 211 187 170 261 339 231 201 198 173 111 136 152 161 168 173 173 177 176 179 178 181 179 178 182 172 185 178 182 188 185 179 193 187 189 187 159 160 175 174 171 173 177 169 216 199
211 247 259 236 234 232 206 225 321 232 221 210 204 162 165 165 172 179 184 182 181 176 179 183 184 183 183 184 177 186 186 186 190 193 186 203 187 188 200 180 182 187 188 195 195 190 210 214 242
242 230 253 257 232 240 236 255 228 245 259 8 266 167 172 175 179 185 189 182 181 181 184 185 186 186 192 184 187 186 189 194 194 195 194 198 197 191 201 193 191 197 185 201 198 202 216 220 225
239 243 241 241 252 256 278 251 249 245 234 235 231 172 184 187 186 188 190 183 181 185 186 189 188 189 191 198 191 194 197 195 198 194 194 201 203 197 199 200 198 197 196 203 204 211 207 213 222
327 241 247 240 242 247 259 254 216 233 207 197 201 193 193 194 190 187 192 188 189 189 188 188 193 190 192 199 200 198 198 192 207 198 197 204 206 196 204 203 208 207 206 209 214 215 216 223 224
246 245 240 234 230 237 255 255 232 244 197 213 205 201 199 203 194 195 195 196 191 193 188 190 193 192 198 199 201 204 200 208 203 207 203 199 207 203 212 207 207 213 207 216 218 220 221 228 224
234 233 247 234 218 220 217 252 224 226 227 228 216 199 202 202 204 203 197 203 197 196 195 191 192 193 198 200 200 204 206 205 209 209 204 205 207 207 208 209 209 210 214 209 215 217 220 224 227
216 236 225 237 191 225 211 240 247 217 225 230 220 211 202 205 207 210 204 204 204 201 195 195 198 199 197 201 203 205 207 210 213 211 209 203 208 208 212 215 210 208 213 215 217 219 227 226 229
221 223 243 224 211 217 219 235 245 236 222 225 227 213 212 210 207 207 211 209 207 206 203 201 199 204 200 200 205 207 211 211 216 214 213 208 207 207 207 217 214 208 214 215 217 223 218 235 237
251 247 227 227 227 253 225 246 229 241 223 239 237 229 218 220 221 216 209 213 214 214 206 207 202 201 196 201 200 205 209 208 212 218 217 213 211 207 208 214 208 210 216 220 211 218 225 223 230
240 241 233 246 260 245 251 247 244 240 245 236 233 231 231 227 225 225 227 226 220 220 216 212 212 203 201 201 207 209 211 213 216 217 217 215 213 210 208 212 211 207 214 218 218 216 222 228 220
234 236 239 242 200 228 268 259 246 242 250 249 237 241 248 231 230 230 227 230 226 226 227 223 216 211 206 211 205 206 213 219 215 219 216 214 214 212 210 207 214 208 212 214 213 214 217 227 222
235 233 248 259 249 250 237 270 253 237 226 235 239 237 236 245 245 247 246 236 224 233 228 232 223 218 211 207 207 204 207 206 215 214 218 215 215 216 214 215 211 213 209 218 213 214 219 222 232
243 241 255 235 242 255 250 253 263 254 245 236 234 244 243 239 244 246 246 243 243 234 228 229 226 224 213 205 214 208 214 219 217 214 219 214 213 216 215 212 216 215 214 215 219 214 213 221 230
255 230 227 237 238 238 235 240 263 244 244 234 237 249 255 245 246 247 250 251 249 244 237 221 222 222 215 207 208 214 216 222 218 216 210 209 209 207 215 213 215 216 218 218 216 221 219 221 229
221 212 216 220 220 238 227 227 246 230 284 288 276 249 241 251 254 255 250 245 234 234 225 223 213 216 214 209 210 214 218 218 223 220 209 205 204 205 208 208 209 214 216 219 218 218 222 221 224
212 221 228 223 228 238 223 236 238 243 256 260 262 241 254 272 226 261 256 250 253 235 221 215 216 221 213 213 215 216 221 221 221 220 215 211 209 208 203 202 208 212 213 215 216 218 218 221 222
227 219 229 244 269 276 264 232 235 253 258 256 250 257 258 263 250 265 249 238 247 233 209 213 216 223 221 217 216 216 217 218 217 218 210 208 209 207 202 200 203 207 209 210 210 213 214 218 218
235 233 224 234 240 245 236 236 232 206 217 237 251 256 256 261 259 274 266 249 237 254 264 240 233 238 228 224 220 216 217 217 218 214 210 209 205 205 199 197 200 205 207 208 206 207 213 213 213
207 236 246 253 221 244 251 237 235 250 263 273 269 340 353 309 273 307 317 290 254 278 272 268 265 253 249 237 226 220 218 217 214 213 209 206 202 201 198 195 197 200 205 204 201 205 203 209 213
290 287 248 236 234 237 247 247 262 275 274 257 261 285 284 270 300 310 309 297 294 293 296 281 278 260 250 241 232 224 219 212 211 211 206 201 201 198 196 192 194 195 198 197 201 202 194 203 212